sat.trackr.live / text

‹ back to catalog

STARLINK-38055

NORAD 69704 · 2026-147A

PAYLOAD ACTIVE UNKNOWN

§ Identity

Operator
Country
US
Launch date
2026-06-28
Launch site
AFWTR
Launch vehicle
Mass (kg)
RCS (m²)

Purposes: comms

External: N2YO · Heavens-Above · Gunter

§ Orbital elements

Epoch: 2026-09-19T16:26:57.587136Z

Period
93.91 min
Inclination
97.2847°
Eccentricity
0.0000977
Mean motion
15.33448875 rev/d
Perigee alt
464.9 km
Apogee alt
466.2 km
Semi-major
6,843.7 km
B*
3.0914e-4
RAAN
298.9768°
Arg perigee
118.9463°
Mean anomaly
241.1878°
Rev number
1,410

§ Raw data

STARLINK-380551 69704U 26147A   26262.68538874  .00009919  00000+0  30914-3 0  99902 69704  97.2847 298.9768 0000977 118.9463 241.1878 15.33448875 14104

JSON: /api/v1/satellites/69704 · /tle

For live sub-satellite position, see the globe view (requires WebGL).

§ Visibility from observer

Set your observer location to see the next 7 days of passes ≥ 10°. The values pass through the URL so the page stays shareable.

No JS? Fill the form by hand. The geolocation button needs JavaScript.